CW9086 Weather Reports


Display with metric or nautical units.
time (UTC)temp
F
wind
direction
speed
MPH
gust
MPH
rain 1hr
in
rain 24hr
in
rain mn
in
humidity
%
barometer
mb
20260502205105 59 213 2.0 5.0 0.00 0.00 0.00 77 1013.8
20260502204604 59 212 1.0 6.0 0.00 0.00 0.00 77 1013.9
20260502204104 59 212 2.0 6.0 0.00 0.00 0.00 77 1013.9
20260502203604 59 212 2.0 7.0 0.00 0.00 0.00 77 1014.0
20260502203105 59 213 2.0 7.0 0.00 0.00 0.00 77 1014.1
20260502202605 59 212 1.0 3.0 0.00 0.00 0.00 77 1014.1
20260502202104 59 211 1.0 5.0 0.00 0.00 0.00 78 1014.1
20260502201604 59 203 2.0 5.0 0.00 0.00 0.00 78 1014.1
20260502201105 59 198 2.0 5.0 0.00 0.00 0.00 77 1014.0
20260502200604 59 212 1.0 5.0 0.00 0.00 0.00 77 1014.0
20260502200105 59 208 2.0 5.0 0.00 0.00 0.00 77 1014.0
20260502195605 59 213 2.0 5.0 0.00 0.00 0.00 77 1014.2
20260502195105 59 210 1.0 6.0 0.00 0.00 0.00 77 1014.1
20260502194605 59 210 1.0 6.0 0.00 0.00 0.00 77 1014.2
20260502194104 59 210 0.0 3.0 0.00 0.00 0.00 78 1014.3
20260502193104 59 210 1.0 3.0 0.00 0.00 0.00 77 1014.3
20260502192604 59 212 1.0 3.0 0.00 0.00 0.00 77 1014.4
20260502192104 59 212 1.0 3.0 0.00 0.00 0.00 78 1014.4
20260502191604 59 212 1.0 3.0 0.00 0.00 0.00 78 1014.6
20260502191104 59 209 1.0 3.0 0.00 0.00 0.00 78 1014.7
20260502190605 59 210 1.0 3.0 0.00 0.00 0.00 78 1014.6
20260502190105 59 209 1.0 3.0 0.00 0.00 0.00 78 1014.6
20260502185605 59 209 1.0 5.0 0.00 0.00 0.00 78 1014.6
20260502185104 58 211 1.0 5.0 0.00 0.00 0.00 78 1014.7
20260502184604 58 208 2.0 3.0 0.00 0.00 0.00 79 1014.7
20260502183104 58 213 1.0 3.0 0.00 0.00 0.00 80 1014.9
20260502182605 58 209 1.0 3.0 0.00 0.00 0.00 80 1015.0
20260502182104 58 209 1.0 5.0 0.00 0.00 0.00 81 1015.1
20260502181604 57 209 2.0 5.0 0.00 0.00 0.00 81 1015.1
20260502181104 57 208 1.0 3.0 0.00 0.00 0.00 83 1015.2
20260502180105 56 207 1.0 7.0 0.00 0.00 0.00 84 1015.2
20260502170103 54 214 1.0 3.0 0.00 0.00 0.00 86 1015.5
20260502163103 53 212 1.0 3.0 0.00 0.00 0.00 87 1015.4
20260502162605 53 212 0.0 3.0 0.00 0.00 0.00 87 1015.4
20260502162104 53 212 0.0 3.0 0.00 0.00 0.00 87 1015.4
20260502161605 52 212 1.0 3.0 0.00 0.00 0.00 87 1015.4
20260502161104 52 212 1.0 3.0 0.00 0.00 0.00 87 1015.4
20260502160604 52 212 1.0 3.0 0.00 0.00 0.00 87 1015.4
20260502160105 52 212 1.0 3.0 0.00 0.00 0.00 87 1015.5
20260502152104 51 211 0.0 3.0 0.00 0.00 0.00 87 1015.7
20260502151604 51 207 1.0 3.0 0.00 0.00 0.00 87 1015.6
20260502150604 51 212 0.0 3.0 0.00 0.00 0.00 88 1015.7
20260502150105 51 212 0.0 2.0 0.00 0.00 0.00 88 1015.7
20260502140104 51 212 0.0 3.0 0.00 0.00 0.00 87 1015.5
20260502130605 51 204 0.0 2.0 0.00 0.00 0.00 87 1015.4
20260502123604 51 203 0.0 2.0 0.00 0.00 0.00 87 1015.3
20260502121604 51 203 0.0 1.0 0.00 0.00 0.00 87 1015.3
20260502120604 51 203 0.0 2.0 0.00 0.00 0.00 87 1015.4
20260502120104 51 204 0.0 1.0 0.00 0.00 0.00 87 1015.5
20260502114605 51 203 0.0 2.0 0.00 0.00 0.00 87 1015.5
20260502114104 51 204 0.0 1.0 0.00 0.00 0.00 86 1015.6
20260502113603 51 204 0.0 0.0 0.00 0.00 0.00 86 1015.7
20260502113105 51 204 0.0 0.0 0.00 0.00 0.00 86 1015.7
20260502112103 51 204 0.0 0.0 0.00 0.00 0.00 86 1015.9
20260502111103 51 204 0.0 0.0 0.00 0.00 0.00 86 1016.0
20260502110604 51 204 0.0 0.0 0.00 0.00 0.00 86 1016.3
20260502110104 51 204 0.0 0.0 0.00 0.00 0.00 86 1016.3
20260502105605 51 204 0.0 0.0 0.00 0.00 0.00 86 1016.4
20260502105103 51 204 0.0 0.0 0.00 0.00 0.00 86 1016.4
20260502104103 51 204 0.0 0.0 0.00 0.00 0.00 86 1016.3
20260502103603 51 204 0.0 0.0 0.00 0.00 0.00 86 1016.3
20260502103106 51 204 0.0 2.0 0.00 0.00 0.00 86 1016.3
20260502102603 51 203 0.0 2.0 0.00 0.00 0.00 86 1016.3
20260502102105 51 204 0.0 0.0 0.00 0.00 0.00 86 1016.3
20260502100603 51 203 0.0 1.0 0.00 0.00 0.00 86 1016.3
20260502091105 51 203 0.0 0.0 0.00 0.00 0.00 86 1016.6
20260502090604 51 203 0.0 1.0 0.00 0.00 0.00 86 1016.6
20260502080105 51 203 0.0 0.0 0.00 0.00 0.00 85 1017.0
20260502071109 52 203 0.0 1.0 0.00 0.00 0.00 85 1017.1
20260502070606 52 203 0.0 1.0 0.00 0.00 0.00 85 1017.2
20260502070106 52 202 0.0 1.0 0.00 0.00 0.00 85 1017.1
20260502065106 52 203 0.0 0.0 0.00 0.00 0.00 85 1017.0
20260502064605 52 203 0.0 1.0 0.00 0.00 0.00 85 1017.0
20260502064105 52 203 0.0 2.0 0.00 0.00 0.00 85 1017.0
20260502063606 52 203 0.0 2.0 0.00 0.00 0.00 85 1017.1
20260502062604 52 206 0.0 2.0 0.00 0.00 0.00 85 1017.0
20260502060106 52 206 0.0 1.0 0.00 0.00 0.00 85 1017.0
20260502055605 52 205 0.0 1.0 0.00 0.00 0.00 85 1016.9
20260502055104 52 205 0.0 3.0 0.00 0.00 0.00 85 1016.9
20260502054605 52 205 0.0 3.0 0.00 0.00 0.00 85 1016.9
20260502054105 52 205 0.0 1.0 0.00 0.00 0.00 85 1016.9
20260502053605 52 205 0.0 1.0 0.00 0.00 0.00 85 1017.0
20260502053105 52 205 0.0 0.0 0.00 0.00 0.00 85 1017.0
20260502052604 52 205 0.0 0.0 0.00 0.00 0.00 85 1017.0
20260502051606 52 205 0.0 0.0 0.00 0.00 0.00 85 1017.1
20260502051105 52 205 0.0 0.0 0.00 0.00 0.00 85 1017.1
20260502050605 52 205 0.0 0.0 0.00 0.00 0.00 85 1017.1
20260502050105 52 205 0.0 0.0 0.00 0.00 0.00 84 1017.1
20260502045605 52 205 0.0 0.0 0.00 0.00 0.00 84 1017.1
20260502045104 52 205 0.0 0.0 0.00 0.00 0.00 84 1017.1
20260502044605 52 205 0.0 0.0 0.00 0.00 0.00 84 1017.1
20260502044105 52 205 0.0 1.0 0.00 0.00 0.00 84 1017.1
20260502043606 52 205 0.0 1.0 0.00 0.00 0.00 84 1017.2
20260502043105 52 205 0.0 1.0 0.00 0.00 0.00 84 1017.1
20260502042604 52 205 0.0 0.0 0.00 0.00 0.00 84 1017.1
20260502041104 52 205 0.0 1.0 0.00 0.00 0.00 84 1017.0
20260502040105 52 205 0.0 1.0 0.00 0.00 0.00 84 1016.9
20260502035606 52 205 0.0 1.0 0.00 0.00 0.00 83 1016.9
20260502035106 52 205 0.0 1.0 0.00 0.00 0.00 83 1016.9
20260502034605 52 205 0.0 0.0 0.00 0.00 0.00 83 1016.9
20260502034105 52 205 0.0 2.0 0.00 0.00 0.00 83 1016.9
20260502033106 52 205 0.0 1.0 0.00 0.00 0.00 83 1016.8
20260502032605 52 205 0.0 1.0 0.00 0.00 0.00 83 1016.8
20260502032104 53 205 0.0 1.0 0.00 0.00 0.00 83 1016.8
20260502031606 53 205 0.0 2.0 0.00 0.00 0.00 83 1016.7
20260502031105 53 204 0.0 2.0 0.00 0.00 0.00 83 1016.7
20260502030605 53 205 0.0 2.0 0.00 0.00 0.00 82 1016.7
20260502030105 53 206 0.0 3.0 0.00 0.00 0.00 82 1016.6
20260502025105 53 213 0.0 3.0 0.00 0.00 0.00 82 1016.7
20260502024604 53 217 0.0 3.0 0.00 0.00 0.00 82 1016.6
20260502024105 53 217 0.0 3.0 0.00 0.00 0.00 82 1016.6
20260502023605 53 195 0.0 2.0 0.00 0.00 0.00 82 1016.6
20260502023104 53 195 0.0 2.0 0.00 0.00 0.00 82 1016.6
20260502022606 53 195 1.0 3.0 0.00 0.00 0.00 82 1016.5
20260502021605 53 209 0.0 3.0 0.00 0.00 0.00 81 1016.5
20260502021105 54 209 0.0 3.0 0.00 0.00 0.00 82 1016.5
20260502020605 54 209 0.0 3.0 0.00 0.00 0.00 82 1016.5
20260502020104 54 210 0.0 2.0 0.00 0.00 0.00 82 1016.5
20260502015605 54 210 0.0 2.0 0.00 0.00 0.00 82 1016.5
20260502015104 54 210 0.0 2.0 0.00 0.00 0.00 81 1016.5
20260502014605 54 210 0.0 2.0 0.00 0.00 0.00 81 1016.5
20260502014104 54 212 0.0 2.0 0.00 0.00 0.00 81 1016.6
20260502013605 54 212 0.0 1.0 0.00 0.00 0.00 81 1016.6
20260502013105 54 212 0.0 3.0 0.00 0.00 0.00 81 1016.6
20260502012606 54 208 0.0 5.0 0.00 0.00 0.00 81 1016.5
20260502012105 54 212 1.0 5.0 0.00 0.00 0.00 81 1016.6
20260502011605 54 217 1.0 2.0 0.00 0.00 0.00 81 1016.6
20260502011105 54 206 0.0 3.0 0.00 0.00 0.00 80 1016.6
20260502010105 55 208 1.0 3.0 0.00 0.00 0.00 80 1016.6
20260502005106 55 209 0.0 3.0 0.00 0.00 0.00 80 1016.7
20260502004607 55 209 1.0 3.0 0.00 0.00 0.00 80 1016.7
20260502004107 55 211 0.0 2.0 0.00 0.00 0.00 80 1016.7
20260502003605 55 211 1.0 2.0 0.00 0.00 0.00 80 1016.7
20260502003105 55 211 0.0 2.0 0.00 0.00 0.00 80 1016.6
20260502002607 55 206 0.0 2.0 0.00 0.00 0.00 80 1016.7
20260502001605 55 215 0.0 3.0 0.00 0.00 0.00 80 1016.6
20260502001106 55 215 0.0 5.0 0.00 0.00 0.00 80 1016.7
20260502000106 55 195 0.0 2.0 0.00 0.00 0.00 81 1016.7
20260501235105 55 195 0.0 5.0 0.00 0.00 0.00 80 1016.8
20260501234105 55 210 2.0 5.0 0.00 0.00 0.00 80 1016.8
20260501232606 55 209 0.0 3.0 0.00 0.00 0.00 80 1016.8
20260501232105 55 209 1.0 3.0 0.00 0.00 0.00 80 1016.8
20260501231605 55 208 1.0 6.0 0.00 0.00 0.00 80 1016.9
20260501231105 55 195 0.0 6.0 0.00 0.00 0.00 80 1016.9
20260501230106 55 211 0.0 3.0 0.00 0.00 0.00 80 1017.1
20260501225106 56 197 1.0 3.0 0.00 0.00 0.00 80 1017.1
20260501224606 56 213 1.0 3.0 0.00 0.00 0.00 80 1017.2
20260501223105 56 210 1.0 3.0 0.00 0.00 0.00 80 1017.1
20260501222606 56 210 0.0 3.0 0.00 0.00 0.00 80 1017.2
20260501222104 56 210 1.0 3.0 0.00 0.00 0.00 80 1017.2
20260501221605 56 209 1.0 3.0 0.00 0.00 0.00 80 1017.2
20260501221105 56 195 0.0 2.0 0.00 0.00 0.00 80 1017.2
20260501220605 56 195 0.0 3.0 0.00 0.00 0.00 80 1017.3
20260501220105 56 195 1.0 3.0 0.00 0.00 0.00 80 1017.3
20260501215606 56 212 0.0 3.0 0.00 0.00 0.00 80 1017.3
20260501215104 56 212 1.0 3.0 0.00 0.00 0.00 80 1017.3
20260501214605 56 212 2.0 3.0 0.00 0.00 0.00 80 1017.3
20260501213605 56 212 1.0 3.0 0.00 0.00 0.00 81 1017.3
20260501212605 56 211 0.0 3.0 0.00 0.00 0.00 81 1017.4
20260501212105 56 195 1.0 3.0 0.00 0.00 0.00 81 1017.4
20260501211605 56 210 1.0 2.0 0.00 0.00 0.00 82 1017.3
20260501211105 56 209 0.0 3.0 0.00 0.00 0.00 82 1017.3
20260501210605 56 209 1.0 3.0 0.00 0.00 0.00 82 1017.3
20260501210105 56 209 0.0 3.0 0.00 0.00 0.00 82 1017.3
20260501205605 56 209 0.0 3.0 0.00 0.00 0.00 82 1017.4